Visibility
15.0 15.0 15.0 12.7 3.9 3.9 2.1 1.4 0.3 0.4 10.2 15.0 15.0 11.5 7.4 9.0 10.7 15.0 15.0 8.5 0.3 10.8 0.3 12.8 15.0 7.8 1.1 2.1 3.0 3.2 3.7 4.8 15.0 15.0 15.0 15.0 15.0 13.3
15.0 15.0 14.4 9.3 12.5 12.7 0.5 5.4 3.5 0.7 0.3 15.0 15.0 15.0 12.9 15.0 7.4 13.2 3.7 4.3 0.4 5.7 0.6 0.2 0.1 0.2 1.1 1.9 3.7 3.2 3.4 4.0 5.6 14.7 15.0 15.0 15.0 15.0
15.0 15.0 15.0 11.2 5.1 4.0 6.3 5.4 2.7 2.6 0.2 10.9 15.0 15.0 15.0 15.0 15.0 14.8 15.0 6.6 14.3 0.2 2.9 4.9 0.1 0.1 0.3 0.3 0.6 2.2 2.8 4.0 6.5 15.0 8.9 15.0 15.0 12.1
15.0 15.0 15.0 11.6 5.0 4.2 3.4 2.7 4.5 12.3 6.1 8.5 15.0 14.3 15.0 15.0 15.0 8.9 7.5 5.4 4.2 3.3 4.5 0.4 0.2 0.1 0.1 0.1 0.1 1.7 4.7 3.9 3.8 5.5 15.0 15.0 15.0 15.0
15.0 15.0 15.0 15.0 6.7 3.4 2.4 3.1 13.4 6.3 7.1 14.7 8.8 15.0 15.0 15.0 15.0 9.7 4.3 4.6 5.7 6.5 2.7 4.4 0.3 0.3 0.2 0.1 0.1 0.5 2.4 3.5 2.7 3.9 8.4 15.0 14.8 10.1
11.7 11.4 7.5 7.7 6.6 3.0 2.4 3.5 4.8 9.2 7.8 15.0 10.9 15.0 15.0 15.0 15.0 8.0 15.0 8.9 3.4 6.8 2.9 1.5 2.6 3.6 5.6 3.6 0.1 0.1 0.2 2.4 4.1 3.8 6.1 14.8 8.5 8.8
8.4 5.9 4.7 4.8 6.0 2.8 1.4 6.0 4.7 4.1 3.8 9.2 15.0 15.0 15.0 15.0 15.0 6.7 0.2 0.2 1.3 0.2 1.4 0.3 11.6 4.7 1.0 6.6 6.9 0.1 0.2 2.0 4.0 4.3 6.4 9.0 5.6 7.9
2.8 3.7 15.0 2.1 3.5 2.9 3.1 2.4 1.9 0.0 0.7 3.9 12.3 15.0 15.0 15.0 15.0 0.5 0.1 0.1 0.1 2.2 0.1 0.2 0.3 0.1 0.6 7.4 0.2 0.5 0.1 1.0 3.0 2.6 3.8 6.0 10.5 10.1
4.3 4.6 8.7 15.0 10.1 9.1 13.0 7.4 1.6 15.0 15.0 2.9 0.0 15.0 15.0 15.0 15.0 0.1 0.1 0.1 0.1 0.4 0.2 0.0 0.1 0.0 0.3 13.9 0.1 0.1 0.1 0.1 1.1 2.1 2.7 6.1 11.2 5.5
15.0 15.0 15.0 15.0 12.7 5.8 5.1 9.6 15.0 15.0 15.0 15.0 14.8 12.4 15.0 15.0 15.0 8.6 0.7 0.1 0.5 6.2 10.9 0.0 0.1 0.0 0.1 3.4 6.8 0.1 0.1 0.1 0.1 0.8 7.7 12.0 7.2 3.5
14.9 15.0 15.0 15.0 15.0 8.6 4.5 3.9 6.2 15.0 15.0 15.0 15.0 15.0 15.0 15.0 15.0 9.2 0.1 0.0 0.1 0.1 7.6 0.1 0.1 0.1 0.2 0.1 9.3 0.7 0.1 0.2 0.2 0.2 0.5 2.4 2.7 3.4
14.6 15.0 15.0 14.7 15.0 5.1 1.3 3.5 5.7 10.0 15.0 15.0 15.0 15.0 15.0 15.0 15.0 15.0 15.0 0.0 0.1 0.1 2.1 0.1 0.1 4.2 0.0 15.0 2.3 15.0 12.0 10.6 14.6 15.0 14.6 13.5 4.5 5.6
7.2 7.0 10.0 13.6 9.2 5.6 6.3 0.1 6.3 9.8 13.0 15.0 15.0 15.0 15.0 15.0 15.0 15.0 15.0 6.5 0.1 0.1 13.9 0.2 5.1 15.0 3.8 0.7 12.8 0.8 15.0 7.2 13.4 8.4 6.5 5.6 3.2 2.4
4.8 15.0 15.0 15.0 15.0 10.7 13.7 15.0 13.5 8.7 0.0 14.9 11.6 12.1 15.0 15.0 15.0 15.0 15.0 15.0 3.4 1.9 4.6 8.4 0.0 15.0 9.5 11.3 1.6 6.1 6.9 15.0 15.0 11.4 6.8 4.1 3.4 2.3
6.5 12.5 13.8 14.9 5.8 5.9 15.0 6.5 3.4 12.3 0.0 0.0 14.6 15.0 15.0 15.0 15.0 8.1 1.7 0.2 0.3 0.2 2.0 4.5 7.6 9.6 1.8 14.8 8.7 1.8 1.3 0.6 8.3 15.0 15.0 13.9 1.9 3.0
14.9 13.1 15.0 6.8 15.0 15.0 10.5 7.0 15.0 15.0 15.0 12.9 0.0 5.1 15.0 15.0 15.0 15.0 0.8 0.1 0.0 0.0 0.1 5.9 4.8 0.4 13.1 15.0 15.0 3.8 9.8 0.7 0.8 0.8 2.0 1.2 5.5 9.1
1.7 0.8 0.1 3.5 2.9 15.0 13.2 9.9 14.9 12.5 13.0 6.8 0.1 0.0 0.3 15.0 15.0 15.0 11.5 0.0 0.1 0.2 0.1 0.0 0.4 4.5 7.9 12.4 5.2 11.0 2.5 3.2 1.4 1.2 3.3 6.7 6.3 5.6
0.8 2.1 6.5 0.7 1.9 15.0 15.0 6.4 3.2 11.8 15.0 13.6 0.0 3.9 0.2 0.9 0.4 0.5 15.0 0.0 0.4 0.2 0.1 0.1 0.2 0.1 0.2 0.1 0.2 2.0 0.4 0.9 1.2 13.3 15.0 14.5 15.0 15.0
1.1 1.4 3.6 5.6 0.5 0.0 12.5 14.7 15.0 15.0 15.0 5.2 0.0 0.1 0.0 2.4 0.0 0.0 0.0 0.0 0.3 0.2 0.1 0.1 0.8 15.0 0.6 0.2 0.1 0.1 0.2 0.1 0.1 0.2 15.0 15.0 15.0 15.0
0.5 0.4 0.6 5.8 6.3 8.6 0.1 8.6 15.0 4.3 11.6 0.2 0.0 0.0 0.0 0.0 0.0 0.0 0.0 0.0 7.3 0.1 0.1 0.0 0.0 0.1 15.0 5.2 1.3 0.1 0.3 0.2 5.3 15.0 15.0 15.0 15.0 15.0
0.7 0.7 0.5 0.9 1.9 8.1 7.5 0.2 7.5 8.0 0.1 0.0 0.0 0.1 0.1 0.0 0.0 0.0 0.0 0.8 12.5 0.2 0.1 0.1 0.0 0.1 1.5 7.9 3.0 0.1 0.1 0.1 12.4 15.0 15.0 14.0 5.3 3.1
0.2 0.3 0.6 0.5 0.5 0.7 3.6 13.8 6.3 0.0 0.0 0.0 0.4 0.0 0.0 0.3 0.1 0.0 0.1 0.1 1.9 8.7 0.1 0.1 0.1 0.1 0.1 0.1 0.4 0.4 0.1 0.1 0.1 1.3 15.0 15.0 15.0 13.0
0.2 0.2 0.4 0.4 0.3 0.5 0.7 4.0 15.0 10.3 0.0 0.4 0.0 0.9 0.1 0.0 0.0 0.0 1.1 14.4 2.3 0.9 0.1 0.1 0.1 0.1 0.1 0.1 0.2 0.1 0.4 0.8 1.1 15.0 15.0 15.0 15.0 15.0